Weather History for Elizabethtown, NC

Change the Weather History Date:

Monday, June 9, 2014

  Actual Average (KILM) Record (KILM)
Temperature  
Mean Temperature 78 °F 76 °F  
Max Temperature 89 °F 86 °F 101 °F (2008)
Min Temperature 68 °F 67 °F 51 °F (1997)
Degree Days  
Heating Degree Days 0 0  
Month to date heating degree days 0  
Since 1 June heating degree days 0  
Since 1 July heating degree days 2409  
Cooling Degree Days 14 12  
Month to date cooling degree days 96  
Year to date cooling degree days 377  
Since 1 June cooling degree days 96  
Growing Degree Days 28 (Base 50)    
Moisture  
Dew Point 70 °F    
Average Humidity 78    
Maximum Humidity 97    
Minimum Humidity 46    
Precipitation  
Precipitation 0.00 in 0.18 in 4.74 in (1973)
Month to date precipitation 1.51  
Year to date precipitation 20.41  
Sea Level Pressure  
Sea Level Pressure 29.90 in    
Wind  
Wind Speed 4 mph (South)    
Max Wind Speed 9 mph    
Max Gust Speed -    
Visibility 10 miles    
Events      
T = Trace of Precipitation, MM = Missing Value Source: NWS Daily Summary

Daily Weather History Graph

Daily Weather History Graph

Search for Another Location

Airport:

Trip Planner

Search our weather history database for the weather conditions in past years. The results will help you decide how hot, cold, wet, or windy it might be!

Date:

Astronomy

Jun. 09, 2014 Rise Set
Actual Time 6:01 AM EDT 8:26 PM EDT
Civil Twilight 5:31 AM EDT 8:55 PM EDT
Nautical Twilight 4:55 AM EDT 9:31 PM EDT
Astronomical Twilight 4:15 AM EDT 10:11 PM EDT
Moon 4:53 PM EDT (6/9) 3:18 AM EDT (6/9)
Length of Visible Light 15h 23m
Length of Day
14h 25m
Waxing Gibbous, 85% of the Moon is Illuminated
Jun 9
Waxing Gibbous
Jun 13
Full
Jun 19
Last Quarter
Jun 27
New
Jul 5
First Quarter

Hourly Weather History & Observations

Time (EDT) Temp. Heat Index Dew Point Humidity Pressure Visibility Wind Dir Wind Speed Gust Speed Precip Events Conditions
12:15 AM 69.8 °F - 65.3 °F 86% 29.94 in 10.0 mi SE 3.5 mph - N/A   Scattered Clouds
12:35 AM 69.1 °F - 64.8 °F 86% 29.94 in 10.0 mi SE 4.6 mph - N/A   Clear
12:55 AM 68.9 °F - 64.8 °F 87% 29.93 in 10.0 mi SE 4.6 mph - N/A   Clear
1:15 AM 68.9 °F - 64.8 °F 87% 29.93 in 10.0 mi SE 3.5 mph - N/A   Clear
1:35 AM 68.7 °F - 64.9 °F 88% 29.93 in 10.0 mi SE 3.5 mph - N/A   Clear
1:55 AM 68.2 °F - 64.8 °F 89% 29.92 in 10.0 mi SSE 3.5 mph - N/A   Clear
2:15 AM 68.9 °F - 65.1 °F 88% 29.91 in 10.0 mi SSE 3.5 mph - N/A   Clear
2:35 AM 68.5 °F - 65.1 °F 89% 29.91 in 10.0 mi SE 3.5 mph - N/A   Scattered Clouds
2:55 AM 68.9 °F - 64.9 °F 87% 29.90 in 10.0 mi SE 3.5 mph - N/A   Mostly Cloudy
3:15 AM 68.2 °F - 64.8 °F 89% 29.90 in 10.0 mi SE 3.5 mph - N/A   Mostly Cloudy
3:35 AM 68.2 °F - 64.8 °F 89% 29.90 in 10.0 mi ESE 3.5 mph - N/A   Mostly Cloudy
3:55 AM 68.4 °F - 64.9 °F 89% 29.89 in 10.0 mi SE 3.5 mph - N/A   Overcast
4:15 AM 68.5 °F - 65.1 °F 89% 29.89 in 10.0 mi ESE 3.5 mph - N/A   Overcast
4:35 AM 68.7 °F - 65.3 °F 89% 29.88 in 10.0 mi ESE 4.6 mph - N/A   Mostly Cloudy
4:55 AM 68.9 °F - 65.5 °F 89% 29.88 in 10.0 mi SE 3.5 mph - N/A   Mostly Cloudy
5:15 AM 68.4 °F - 65.5 °F 90% 29.88 in 10.0 mi SE 3.5 mph - N/A   Mostly Cloudy
5:35 AM 68.5 °F - 65.7 °F 90% 29.88 in 10.0 mi Calm Calm - N/A   Mostly Cloudy
5:55 AM 68.7 °F - 66.4 °F 92% 29.88 in 10.0 mi SE 3.5 mph - N/A   Mostly Cloudy
6:15 AM 68.4 °F - 66.2 °F 93% 29.88 in 10.0 mi SE 3.5 mph - N/A   Scattered Clouds
6:35 AM 68.4 °F - 66.9 °F 95% 29.89 in 10.0 mi SE 3.5 mph - N/A   Scattered Clouds
6:55 AM 68.9 °F - 67.3 °F 95% 29.89 in 10.0 mi SE 3.5 mph - N/A   Mostly Cloudy
7:15 AM 69.8 °F - 68.4 °F 95% 29.90 in 10.0 mi Calm Calm - N/A   Scattered Clouds
7:35 AM 71.1 °F - 69.4 °F 95% 29.90 in 10.0 mi SE 3.5 mph - N/A   Scattered Clouds
7:55 AM 72.7 °F - 70.7 °F 93% 29.91 in 10.0 mi Calm Calm - N/A   Scattered Clouds
8:15 AM 73.4 °F - 71.6 °F 94% 29.91 in 10.0 mi Calm Calm - N/A   Overcast
8:35 AM 74.3 °F - 72.0 °F 92% 29.92 in 10.0 mi South 3.5 mph - N/A   Overcast
8:55 AM 74.5 °F - 72.3 °F 93% 29.92 in 10.0 mi South 3.5 mph - N/A   Overcast
9:15 AM 75.2 °F - 72.7 °F 92% 29.93 in 10.0 mi Calm Calm - N/A   Overcast
9:35 AM 75.6 °F - 72.7 °F 91% 29.92 in 10.0 mi Calm Calm - N/A   Overcast
9:55 AM 78.3 °F - 73.4 °F 85% 29.92 in 10.0 mi South 5.8 mph - N/A   Overcast
10:15 AM 79.7 °F - 73.6 °F 81% 29.92 in 10.0 mi SW 5.8 mph - N/A   Overcast
10:35 AM 80.2 °F 84.5 °F 72.7 °F 78% 29.92 in 10.0 mi SSW 3.5 mph - N/A   Overcast
10:55 AM 80.4 °F 84.5 °F 72.3 °F 76% 29.93 in 10.0 mi SW 4.6 mph - N/A   Overcast
11:15 AM 81.0 °F 85.6 °F 72.7 °F 76% 29.92 in 10.0 mi Calm Calm - N/A   Overcast
11:35 AM 83.3 °F 88.4 °F 72.0 °F 68% 29.92 in 10.0 mi SSW 4.6 mph - N/A   Mostly Cloudy
11:55 AM 83.7 °F 89.2 °F 72.0 °F 68% 29.91 in 10.0 mi Calm Calm - N/A   Mostly Cloudy
12:15 PM 84.0 °F 89.3 °F 71.8 °F 66% 29.91 in 10.0 mi WSW 5.8 mph - N/A   Mostly Cloudy
12:35 PM 85.1 °F 90.4 °F 71.1 °F 63% 29.91 in 10.0 mi WSW 5.8 mph - N/A   Mostly Cloudy
12:55 PM 86.0 °F 91.1 °F 70.7 °F 60% 29.91 in 10.0 mi WSW 8.1 mph - N/A   Mostly Cloudy
1:15 PM 85.8 °F 91.5 °F 71.2 °F 62% 29.91 in 10.0 mi WSW 6.9 mph - N/A   Mostly Cloudy
1:35 PM 85.5 °F 90.8 °F 70.9 °F 62% 29.91 in 10.0 mi SW 5.8 mph - N/A   Mostly Cloudy
1:55 PM 86.4 °F 90.7 °F 69.6 °F 57% 29.90 in 10.0 mi West 9.2 mph - N/A   Mostly Cloudy
2:15 PM 86.5 °F 90.7 °F 69.3 °F 56% 29.89 in 10.0 mi West 6.9 mph - N/A   Mostly Cloudy
2:35 PM 88.2 °F 92.1 °F 68.7 °F 52% 29.89 in 10.0 mi WSW 8.1 mph - N/A   Scattered Clouds
3:35 PM 89.4 °F 92.7 °F 67.6 °F 48% 29.88 in 10.0 mi WSW 8.1 mph - N/A   Scattered Clouds
3:55 PM 89.8 °F 92.5 °F 66.6 °F 46% 29.87 in 10.0 mi SSW 6.9 mph - N/A   Clear
4:15 PM 89.1 °F 91.7 °F 66.6 °F 47% 29.87 in 10.0 mi WSW 4.6 mph - N/A   Scattered Clouds
4:35 PM 89.1 °F 92.1 °F 66.9 °F 48% 29.87 in 10.0 mi West 8.1 mph - N/A   Clear
4:55 PM 89.1 °F 91.3 °F 65.7 °F 46% 29.87 in 10.0 mi West 4.6 mph - N/A   Clear
5:15 PM 89.4 °F 92.3 °F 66.6 °F 47% 29.87 in 10.0 mi West 4.6 mph - N/A   Clear
5:35 PM 89.1 °F 92.1 °F 66.9 °F 48% 29.87 in 10.0 mi WNW 5.8 mph - N/A   Clear
5:55 PM 89.6 °F 92.6 °F 67.1 °F 47% 29.87 in 10.0 mi WNW 5.8 mph - N/A   Clear
6:15 PM 89.2 °F 92.0 °F 66.6 °F 47% 29.86 in 10.0 mi Calm Calm - N/A   Clear
6:35 PM 88.0 °F 96.0 °F 73.4 °F 62% 29.87 in 10.0 mi SSE 8.1 mph - N/A   Clear
6:55 PM 86.2 °F 94.6 °F 74.3 °F 68% 29.87 in 10.0 mi SE 8.1 mph - N/A   Scattered Clouds
7:15 PM 86.0 °F 93.8 °F 73.9 °F 67% 29.87 in 10.0 mi South 5.8 mph - N/A   Clear
7:35 PM 85.5 °F 93.4 °F 74.3 °F 69% 29.87 in 10.0 mi South 3.5 mph - N/A   Clear
7:55 PM 83.8 °F 90.8 °F 73.9 °F 72% 29.88 in 10.0 mi South 4.6 mph - N/A   Clear
8:15 PM 82.8 °F 89.2 °F 74.1 °F 75% 29.88 in 10.0 mi SSE 4.6 mph - N/A   Clear
8:35 PM 81.9 °F 88.2 °F 74.7 °F 79% 29.88 in 10.0 mi SSE 5.8 mph - N/A   Clear
8:55 PM 80.8 °F 86.3 °F 74.7 °F 82% 29.88 in 10.0 mi SE 5.8 mph - N/A   Clear
9:15 PM 80.2 °F 85.5 °F 75.2 °F 85% 29.88 in 10.0 mi SSE 4.6 mph - N/A   Clear
9:35 PM 78.8 °F - 74.7 °F 87% 29.90 in 7.0 mi SSE 4.6 mph - N/A   Clear
9:55 PM 78.4 °F - 74.5 °F 88% 29.91 in 10.0 mi SSE 4.6 mph - N/A   Clear
10:15 PM 77.9 °F - 75.2 °F 91% 29.92 in 7.0 mi SSE 5.8 mph - N/A   Clear
10:35 PM 77.7 °F - 74.8 °F 91% 29.92 in 7.0 mi SSE 3.5 mph - N/A   Clear
10:55 PM 77.0 °F - 74.5 °F 92% 29.92 in 7.0 mi South 4.6 mph - N/A   Clear
11:15 PM 77.0 °F - 75.2 °F 94% 29.91 in 7.0 mi SSE 4.6 mph - N/A   Clear
11:35 PM 76.3 °F - 75.4 °F 97% 29.91 in 5.0 mi SSE 4.6 mph - N/A   Clear
11:55 PM 76.3 °F - 75.4 °F 97% 29.91 in 5.0 mi South 4.6 mph - N/A   Clear